RH
11 11 12 12 12 12 12 12 12 12 13 12 13 14 13 13 14 14 14 13 13 13 12 12 12 13 14 14 15 15 15 14 15 15 15 15 15 15 16 17 17 16 15 15 15 14 14 14 14 15 16 16 17 17 18 18 19 19 19 20 21 21 22 23 22 21 19 18 16 14 13 12 11 11 11 12 14 16 16 16 14 13 12 12 12
9 10 11 11 11 11 11 11 11 11 11 11 12 13 13 14 14 13 13 13 12 12 12 12 12 13 13 14 15 15 15 16 17 17 16 16 16 17 18 18 18 17 17 17 17 17 17 17 18 19 20 20 21 21 22 22 23 23 23 24 24 25 26 26 25 22 21 19 17 15 14 14 13 13 13 14 15 15 15 15 15 14 13 13 13
10 10 11 12 12 13 13 14 14 14 14 15 15 16 17 17 17 17 16 17 17 17 17 17 17 17 18 19 19 19 19 20 20 20 20 19 19 20 21 21 20 20 20 20 21 21 21 22 23 24 24 24 25 25 26 26 26 27 27 27 27 27 27 27 25 23 21 20 18 16 17 17 16 16 16 16 16 15 15 15 15 15 15 14 14
14 15 16 17 18 19 19 20 20 20 21 22 22 22 22 23 23 23 22 23 23 24 24 24 24 24 25 25 25 25 25 26 26 26 26 26 26 27 26 27 27 27 28 28 28 29 29 29 29 29 29 29 29 29 30 30 30 30 29 29 28 28 28 27 25 24 22 21 20 19 18 18 18 19 19 18 18 17 16 16 15 15 14 14 14
19 20 21 22 24 23 23 24 24 25 25 26 25 25 25 26 26 27 27 27 28 29 30 30 30 30 30 30 30 30 30 31 31 32 32 32 32 32 32 33 34 34 34 34 34 34 34 34 33 33 33 33 33 32 33 33 32 32 32 31 31 30 30 29 27 26 24 23 23 22 21 20 20 20 19 19 18 17 16 16 15 14 13 13 13
21 22 24 25 25 24 25 26 26 27 27 26 26 26 26 27 27 27 29 30 30 31 32 32 33 33 33 33 32 32 33 33 33 34 34 35 34 34 34 34 35 35 35 35 35 35 35 35 35 36 36 36 36 36 35 35 34 34 33 33 32 32 32 31 30 29 28 27 27 26 25 23 22 21 20 19 19 18 17 16 15 14 13 12 12
21 22 23 25 25 26 28 30 30 30 29 28 28 28 28 28 28 28 30 31 32 33 33 34 34 35 34 34 34 35 35 35 35 36 36 35 35 34 34 34 35 35 35 35 36 36 36 37 37 38 39 39 39 39 38 37 36 35 34 34 34 34 34 34 34 33 33 32 31 30 28 26 25 23 22 21 20 19 18 17 15 13 12 11 11
18 19 20 24 27 29 32 34 35 35 33 32 32 32 32 32 32 32 32 33 34 35 35 35 35 35 35 36 37 38 38 38 37 38 38 38 37 37 37 37 37 38 38 38 38 39 39 39 40 41 41 42 42 42 41 40 38 38 37 37 37 37 36 37 37 37 37 36 35 33 31 29 28 26 25 23 21 19 18 16 14 13 11 10 10
18 18 20 24 29 33 35 35 34 33 33 32 31 32 32 33 34 35 37 38 39 40 41 40 38 36 36 37 39 41 41 42 41 41 42 41 41 41 41 41 40 40 40 40 40 40 40 41 42 43 43 44 44 44 44 42 42 41 41 41 41 41 41 41 42 41 41 40 38 36 33 32 30 28 26 24 22 19 17 15 13 12 11 11 11
22 22 23 25 29 32 31 29 27 27 28 28 28 29 29 29 30 32 35 37 38 40 43 44 43 43 43 42 43 43 44 44 43 43 44 43 43 42 40 39 37 35 33 33 34 35 37 39 41 44 45 46 46 45 45 44 44 44 44 44 44 45 45 46 47 46 45 43 40 38 35 33 31 28 26 23 21 18 15 13 11 10 11 12 14
26 26 26 26 27 28 28 28 28 27 27 28 29 30 31 30 30 30 32 33 34 36 37 39 42 44 46 49 50 50 49 48 48 47 45 44 42 41 39 37 35 33 31 30 30 30 32 35 39 43 46 48 48 47 46 47 48 48 48 48 49 49 49 50 50 49 47 45 42 39 36 33 30 27 25 22 19 16 14 12 11 11 11 13 17
32 31 29 27 25 26 30 33 33 32 33 33 33 33 34 33 33 34 34 35 36 36 37 38 39 41 43 48 51 53 53 54 53 52 51 49 47 45 44 42 40 38 36 34 33 32 32 34 37 40 43 47 49 49 50 52 52 52 52 52 53 53 54 55 55 53 50 46 42 39 35 32 29 26 23 20 17 14 12 11 11 12 14 17 21
37 35 33 30 29 30 34 37 37 38 39 39 39 37 37 37 37 37 38 39 39 40 41 41 42 42 43 45 47 49 50 52 53 53 53 53 53 52 51 50 48 45 42 39 37 35 35 35 35 36 39 44 49 52 53 55 55 54 53 54 55 57 59 61 61 57 52 46 42 38 34 31 28 24 21 18 15 13 12 12 13 15 18 21 24
44 44 43 41 41 40 40 41 42 44 44 43 42 41 40 40 40 41 42 42 43 43 44 45 45 46 46 47 47 47 48 49 49 49 51 53 54 54 55 56 55 52 48 45 42 40 38 37 36 36 38 41 46 50 52 54 55 56 56 58 60 63 66 67 64 58 51 45 41 37 33 29 26 22 19 16 15 14 14 15 18 20 23 25 27
41 44 47 48 48 48 47 47 47 46 47 46 46 45 45 45 45 45 45 46 46 46 47 48 49 50 50 51 51 51 51 50 49 49 50 51 52 54 57 59 59 57 55 53 50 46 43 41 40 39 39 40 43 47 50 53 55 57 60 64 68 72 74 72 65 57 49 44 40 36 32 28 24 21 19 17 16 17 19 21 24 26 27 28 29
33 35 38 40 42 44 46 49 50 51 51 50 50 50 50 49 49 49 48 49 49 49 50 51 52 53 53 54 55 55 55 56 55 54 54 54 53 56 59 60 60 60 60 59 56 54 51 48 45 43 42 41 42 45 48 52 57 60 64 68 73 78 79 74 64 55 48 43 39 34 30 26 23 21 19 19 20 22 25 27 29 29 30 29 28
34 36 37 37 38 38 40 42 46 51 55 58 59 59 57 55 54 53 52 52 51 51 52 53 54 55 56 56 57 59 60 61 61 60 60 59 59 60 60 59 60 62 63 61 60 61 59 55 51 47 45 43 43 45 47 52 57 63 67 72 79 83 81 72 61 52 46 42 37 33 29 26 23 21 21 22 24 27 29 31 31 31 30 28 27
39 43 46 47 47 46 45 44 43 46 50 56 60 63 66 66 65 63 61 58 57 56 56 57 57 58 58 58 59 61 63 65 66 67 67 67 66 65 63 63 64 64 63 64 65 67 66 63 58 53 50 48 47 48 50 54 60 65 70 78 86 86 79 68 58 50 45 40 36 32 29 26 24 24 25 26 28 30 31 32 31 30 29 27 25
45 50 55 57 59 59 57 56 54 52 51 52 55 58 64 70 74 74 72 69 67 65 63 62 61 60 60 61 61 63 65 68 71 73 74 75 73 70 70 70 69 66 65 67 69 70 71 69 64 60 56 54 54 55 57 61 65 68 74 84 90 86 75 63 54 49 44 39 36 32 29 28 28 28 29 30 32 32 32 32 30 29 27 26 24
50 56 61 65 71 72 69 66 66 65 63 61 60 59 60 65 73 79 81 80 78 74 71 67 64 63 63 63 64 64 67 71 74 77 80 81 80 79 79 77 71 67 67 68 70 72 74 73 69 65 62 60 61 63 66 69 71 72 79 88 91 82 69 60 52 47 43 39 35 32 30 30 31 32 33 33 33 33 32 31 30 28 27 25 24
55 60 64 68 76 81 80 77 76 76 76 75 72 70 68 68 73 79 84 87 86 83 77 72 69 67 66 66 66 66 68 72 76 81 85 86 87 88 87 81 74 71 70 69 71 74 76 76 74 70 68 66 68 71 74 75 76 79 87 93 89 77 65 57 51 46 42 39 36 33 32 33 33 34 35 35 34 33 32 31 30 29 27 26 25
56 63 69 70 72 77 81 84 85 84 84 84 81 79 78 77 78 81 86 91 92 89 84 78 73 71 70 70 70 70 70 73 77 84 89 92 95 97 93 85 79 78 75 73 74 78 80 80 79 76 74 73 75 77 78 79 81 87 95 94 83 71 61 55 50 46 42 39 36 35 35 35 36 36 36 35 34 33 32 31 30 29 28 27 25
58 67 72 71 67 70 76 82 87 88 88 88 86 84 85 85 84 85 89 95 97 94 89 84 78 75 75 74 74 75 74 75 79 86 94 98 101 102 96 88 84 82 79 77 79 82 84 84 83 81 79 79 80 82 81 81 86 94 98 91 78 67 59 53 49 45 42 40 38 38 38 38 38 37 36 35 34 33 32 31 30 29 28 27 25
57 62 67 69 67 69 73 80 87 89 90 89 87 88 89 91 91 91 94 99 100 97 93 88 83 80 79 79 80 81 80 80 82 89 98 102 105 105 97 89 86 84 81 81 83 86 88 88 87 85 84 84 85 85 83 85 91 98 97 86 74 65 58 52 49 45 43 42 40 40 40 40 39 37 36 34 33 32 31 30 29 28 27 26 25
52 54 58 63 65 68 73 81 87 91 92 93 93 94 96 97 97 95 97 100 101 99 95 91 87 85 83 84 86 86 87 86 86 92 100 102 103 104 97 90 88 85 84 85 88 91 91 91 90 88 87 88 88 87 86 89 96 99 93 81 70 63 57 52 49 46 44 43 43 43 42 40 38 36 34 33 32 31 31 30 29 29 28 26 25
49 52 55 58 61 65 71 79 86 91 95 97 99 101 103 102 99 96 97 99 100 100 97 94 91 89 88 89 90 92 93 90 90 96 101 101 101 102 97 92 89 87 87 90 92 94 94 93 92 91 91 91 89 88 90 95 100 97 87 76 67 61 56 53 50 48 47 46 45 44 42 40 37 35 33 32 31 31 30 30 29 29 28 27 26
50 54 58 61 62 66 71 77 84 91 97 100 102 104 103 101 99 97 99 101 101 101 99 97 95 93 92 94 96 97 96 95 96 99 101 101 101 101 98 94 91 90 92 94 96 97 95 94 94 94 94 92 90 90 93 98 99 93 82 72 65 60 57 55 53 51 50 49 48 45 42 39 37 35 33 32 31 31 30 30 29 29 28 28 27
60 62 64 65 66 69 73 77 84 92 97 100 101 100 98 96 96 99 101 103 103 102 101 100 98 97 97 99 100 100 100 100 101 101 100 101 102 101 98 95 94 94 96 97 98 97 95 94 96 96 94 91 90 92 95 99 96 88 77 69 64 61 59 58 56 54 53 51 49 46 42 40 38 35 34 33 32 31 31 31 31 30 29 28 29
67 68 69 71 73 75 77 79 84 90 94 96 97 96 96 95 96 98 101 103 103 103 101 100 100 99 100 102 102 102 103 103 101 101 101 101 101 101 98 95 96 97 99 100 98 96 95 95 97 96 93 92 93 96 99 99 93 83 74 68 64 62 61 60 58 57 55 53 49 46 43 41 39 37 36 35 34 34 34 34 33 32 31 31 31
71 75 79 82 84 84 85 87 89 92 95 96 96 96 95 94 93 95 98 100 101 100 100 100 101 101 102 104 103 103 103 102 99 101 101 100 101 100 96 95 98 99 101 100 98 98 97 96 96 95 94 95 97 99 101 98 90 80 73 68 66 64 63 62 61 60 57 54 51 48 45 43 41 40 38 37 38 38 38 37 36 35 34 33 33
82 89 93 95 96 96 97 97 97 98 98 97 96 94 92 91 92 95 98 99 99 99 100 101 103 103 103 103 102 101 101 100 100 101 100 101 101 98 95 98 101 100 99 98 99 101 100 98 96 95 96 98 99 101 101 95 86 79 74 70 68 66 65 64 63 62 59 56 53 50 48 46 44 42 41 41 41 42 41 40 38 36 36 36 37
97 100 100 101 101 102 102 101 101 100 97 94 92 88 88 91 95 96 97 97 97 100 102 103 103 102 101 101 101 100 100 100 100 100 101 101 99 97 99 102 101 98 96 97 101 103 101 99 97 97 98 99 100 102 99 91 84 79 75 72 69 68 68 67 66 64 61 58 55 53 51 49 47 46 45 45 45 46 45 43 41 40 39 41 43
101 101 101 101 100 101 101 101 101 97 94 91 90 90 91 93 94 93 93 96 99 102 102 101 101 101 100 100 100 100 100 100 100 100 102 101 98 100 103 102 96 94 94 97 102 103 102 100 99 99 99 99 101 103 97 88 83 81 77 74 71 69 69 70 69 67 64 62 59 57 55 52 51 50 49 49 48 47 46 44 42 42 44 46 48
100 101 100 99 101 101 100 99 96 93 91 91 91 92 93 91 91 93 96 99 101 101 100 100 100 100 100 100 100 100 100 100 100 101 102 100 100 102 101 96 91 91 94 100 103 103 102 100 99 100 100 100 103 103 96 89 87 84 81 77 74 72 71 72 73 71 69 66 64 62 59 58 57 57 58 57 55 53 50 48 48 49 51 53 54
100 100 100 100 102 102 99 97 96 95 96 94 91 90 89 89 93 97 100 101 101 100 99 100 100 100 100 100 100 100 100 100 100 102 103 100 100 101 97 91 89 93 99 104 104 102 101 99 99 100 99 100 104 103 96 92 91 88 85 82 78 76 75 75 76 75 73 70 67 65 64 62 61 61 64 64 62 60 57 56 57 59 60 61 61
100 100 100 100 100 101 101 99 99 98 96 93 92 91 91 94 98 100 100 100 100 100 100 100 100 100 100 100 100 100 100 100 101 103 103 102 100 97 92 89 92 99 103 104 102 100 100 99 100 100 99 100 103 103 99 96 95 93 89 86 83 82 81 80 81 80 77 73 71 69 67 65 62 62 63 64 63 61 60 60 62 64 66 66 67
100 101 101 101 100 100 98 97 96 95 94 95 96 97 98 99 99 100 100 100 99 99 100 100 100 100 100 100 100 100 100 100 101 101 102 102 98 93 90 92 98 104 103 101 100 100 100 100 100 100 100 100 102 104 103 100 98 96 93 90 89 86 84 85 86 86 82 78 76 75 73 70 66 63 63 63 64 63 61 62 63 65 66 66 71
101 101 101 99 98 97 96 95 95 96 97 99 100 100 101 101 100 100 100 100 100 100 100 100 100 100 100 100 100 100 100 100 101 100 100 100 97 93 93 97 101 104 102 100 100 100 100 100 100 100 100 100 101 104 103 98 95 94 93 93 92 89 87 90 93 91 87 85 84 83 81 76 70 68 66 64 66 67 65 65 66 65 63 64 74
99 99 98 97 96 96 96 94 92 91 92 94 98 101 102 101 100 100 100 99 99 99 100 100 100 100 100 100 100 100 100 100 100 99 99 99 98 98 99 100 101 102 101 100 100 100 100 100 100 100 100 100 100 102 100 94 91 92 93 92 90 88 88 92 94 92 91 92 93 91 87 82 77 72 68 67 71 73 72 71 71 68 65 68 78
88 94 98 97 90 83 75 67 60 56 56 60 69 82 95 103 103 100 99 100 100 100 100 100 100 100 100 100 101 101 100 100 100 100 99 99 100 103 103 102 102 101 100 100 100 100 100 100 100 100 100 100 100 101 100 95 92 94 94 92 89 88 88 89 89 90 92 95 97 96 91 87 84 77 72 72 75 78 79 76 73 72 72 76 82
88 85 82 74 62 49 39 31 26 24 24 26 31 42 62 84 100 103 101 99 99 100 100 100 99 100 100 101 101 101 100 100 99 100 100 99 101 104 104 102 102 101 100 100 100 100 100 100 100 100 100 100 100 101 100 98 97 98 97 93 90 88 87 86 85 88 93 96 98 97 94 91 88 82 78 78 79 83 85 80 75 75 74 75 78
70 56 46 40 33 28 25 23 22 21 21 20 19 20 25 41 65 87 100 103 102 99 99 100 100 100 100 101 101 100 99 99 100 100 100 99 100 102 102 101 101 100 100 100 100 100 100 100 100 100 100 100 100 101 100 100 100 100 99 96 92 88 88 87 85 88 93 96 98 99 97 93 90 86 84 84 85 88 89 86 84 82 78 76 76
44 37 36 36 35 34 34 34 34 34 31 28 26 23 20 19 25 42 63 81 96 102 101 100 100 100 100 100 100 100 100 99 100 100 99 99 100 101 101 100 100 100 100 100 100 100 100 100 100 100 100 100 101 102 101 100 100 100 100 98 94 91 92 91 89 89 91 93 96 99 97 95 94 91 89 88 89 88 87 87 88 88 85 84 81
53 55 57 58 56 55 53 51 49 46 42 38 32 27 25 22 18 19 24 36 60 86 99 102 101 100 100 100 100 100 100 100 100 100 99 100 100 100 100 100 100 100 100 100 100 100 100 100 100 100 100 101 101 101 101 100 100 100 100 99 97 97 98 96 93 91 91 93 94 94 93 94 95 94 93 93 91 88 86 87 87 86 86 84 81
73 73 72 69 64 60 55 50 46 42 38 34 30 26 23 21 19 19 18 19 33 52 72 90 100 101 100 100 100 99 100 100 100 99 99 100 100 100 100 100 100 100 100 100 100 100 100 100 100 99 100 100 101 100 100 100 100 100 99 100 100 100 100 99 96 94 94 94 92 89 90 92 94 95 93 91 87 84 85 86 85 84 83 79 79
59 57 55 50 45 41 37 33 30 28 26 24 22 21 20 19 19 18 18 24 34 43 57 81 98 101 100 100 100 100 100 100 99 99 100 100 100 100 100 100 100 100 100 100 100 100 100 100 100 100 100 100 101 100 100 101 101 99 99 100 101 100 100 100 98 97 97 95 91 90 93 96 98 99 96 91 86 83 83 83 81 81 79 77 80
30 29 27 26 24 22 22 21 20 20 21 20 20 20 20 20 20 19 19 26 41 56 73 90 100 101 101 101 100 100 100 100 99 100 100 100 100 100 100 100 100 100 100 100 100 100 100 100 100 100 100 100 100 99 100 102 102 100 100 101 101 100 101 100 100 100 100 97 94 94 98 101 103 103 101 98 93 89 88 84 80 78 76 77 81
20 21 21 22 22 22 22 22 22 22 21 21 21 21 21 20 22 26 31 40 55 73 90 99 100 100 101 101 101 100 100 99 100 100 100 100 100 100 100 100 100 100 100 100 100 100 100 100 100 100 100 100 100 99 101 104 103 101 101 102 101 101 101 101 101 102 101 99 98 99 102 106 105 100 96 94 90 89 88 84 81 80 77 79 80
22 24 25 24 24 24 23 22 22 24 26 28 28 27 31 41 52 61 67 73 80 90 98 100 100 100 101 100 100 100 99 100 100 100 100 100 100 100 100 100 100 100 100 100 100 100 100 100 100 100 100 100 100 102 103 105 104 101 101 102 102 101 101 102 103 103 103 102 101 103 105 105 102 97 94 93 93 93 90 86 84 83 79 80 76
27 26 26 28 30 31 34 39 47 56 63 66 66 64 68 80 91 96 96 96 97 99 100 100 100 100 100 100 100 100 100 100 100 100 100 100 100 100 100 100 100 100 99 100 100 100 100 100 100 100 100 100 102 104 104 104 104 104 104 104 104 102 102 103 104 105 105 104 102 103 104 103 102 102 103 103 104 102 96 92 91 88 84 82 68
32 29 35 49 62 68 73 79 86 92 96 97 96 95 96 99 100 100 100 100 100 101 101 100 99 100 100 100 100 100 100 100 100 100 100 100 100 100 100 100 100 100 100 100 100 100 100 101 100 100 100 102 104 105 105 104 105 107 106 105 104 103 102 102 104 105 103 102 103 105 105 103 103 104 104 103 102 97 92 91 89 88 89 82 57
Wind_Speed
32 32 32 32 33 33 33 33 33 33 34 35 35 36 37 37 38 39 39 40 40 41 41 41 42 43 43 44 45 46 46 47 47 48 49 49 50 50 51 52 52 53 53 54 54 55 56 57 58 58 59 59 60 60 60 61 61 61 61 61 61 62 62 63 63 62 61 61 60 61 61 62 63 64 64 65 66 67 69 70 70 70 70 70 71
30 30 30 30 31 32 33 33 33 34 35 35 35 36 37 38 38 39 40 41 41 42 42 42 43 44 44 45 46 47 48 48 49 50 50 51 51 52 52 53 54 55 55 56 57 58 59 60 60 60 61 61 61 61 61 61 61 62 62 62 62 62 62 63 63 63 62 62 61 61 61 62 63 64 64 64 65 66 67 69 70 70 71 71 71
30 30 30 30 32 33 33 33 33 35 36 36 36 36 37 38 39 40 41 41 41 42 42 43 43 44 44 45 46 47 48 48 49 50 51 51 51 52 53 55 55 56 57 58 59 60 60 61 61 61 61 61 61 61 61 62 62 62 62 62 62 63 63 63 64 64 63 63 63 62 62 62 62 63 63 64 65 66 67 68 70 71 72 72 73
30 30 30 30 31 32 33 33 34 35 35 35 36 36 37 37 38 39 40 40 40 41 41 42 42 43 43 45 46 46 47 48 48 49 50 51 51 52 54 55 56 56 57 58 59 60 60 60 61 61 61 61 61 61 61 62 62 62 62 62 63 63 63 64 64 65 64 64 64 64 63 63 62 62 62 63 64 65 66 68 69 71 73 74 74
29 29 28 29 30 31 31 32 32 33 33 33 34 35 35 36 36 37 38 39 39 39 40 41 41 42 43 44 45 46 47 47 48 49 49 50 51 52 52 53 54 55 56 57 58 58 59 60 60 61 61 61 61 61 61 62 62 62 62 62 63 63 63 64 65 65 65 65 65 65 64 64 63 63 63 63 64 65 66 67 69 71 72 74 75
28 28 27 28 29 29 29 30 31 31 31 32 32 33 33 34 35 35 36 37 38 38 39 40 41 42 43 44 45 45 46 47 47 48 49 49 50 51 52 52 53 54 55 56 56 57 58 59 60 60 61 61 61 61 62 62 62 62 63 63 63 63 63 64 64 65 65 65 65 65 65 65 64 64 64 64 64 65 66 68 69 71 73 74 76
28 29 28 29 29 29 28 28 30 30 31 31 31 31 31 32 32 32 33 34 35 36 37 38 39 40 42 42 43 44 44 46 46 47 48 49 50 51 51 52 53 54 54 55 56 57 57 58 59 60 60 61 61 62 62 63 63 63 63 63 63 63 63 63 64 64 64 64 65 65 65 65 65 65 65 65 65 66 67 69 71 73 74 75 77
30 30 30 29 29 28 28 28 29 30 30 31 31 31 31 32 32 32 32 33 33 35 36 37 38 39 40 41 41 42 43 45 46 47 48 49 50 51 51 52 53 53 54 54 55 56 57 57 58 59 59 60 61 62 62 63 63 64 64 64 64 64 64 64 64 64 64 64 64 64 64 65 65 66 67 67 67 67 67 69 71 73 75 76 77
31 32 31 30 29 28 28 28 29 30 31 32 33 33 33 33 34 34 34 34 34 35 36 37 38 39 39 40 41 42 43 44 45 46 47 48 49 50 51 51 52 52 53 53 54 54 55 56 57 58 58 59 60 61 62 63 63 63 63 63 64 64 64 64 64 64 64 64 64 64 64 65 65 66 67 68 68 68 68 69 71 72 74 76 77
34 33 31 29 28 27 28 29 31 31 32 33 34 35 35 35 35 36 36 36 36 36 37 39 40 40 41 41 42 42 44 45 45 46 47 48 49 50 50 50 51 51 51 52 52 53 53 54 55 56 57 58 59 61 62 62 63 63 63 63 63 64 64 64 64 63 63 63 63 64 64 65 66 66 67 68 69 69 70 70 71 72 73 74 75
35 34 32 29 27 27 30 31 32 33 34 34 35 36 37 37 37 37 38 38 38 38 39 40 41 42 42 43 43 44 45 46 46 47 48 49 50 50 50 51 51 51 52 52 52 52 53 53 54 55 56 57 59 60 61 61 62 62 62 62 63 63 63 63 63 63 63 63 64 64 65 66 66 67 68 69 70 70 71 72 72 73 73 73 73
37 36 33 30 28 30 33 33 33 34 35 36 36 37 38 39 39 39 39 40 40 40 41 41 42 42 43 44 45 46 46 47 48 49 50 50 51 51 51 52 52 52 53 53 53 53 53 54 54 55 56 57 58 60 60 61 61 62 62 62 62 62 62 63 63 63 63 63 64 64 65 66 67 68 69 70 71 72 72 73 73 73 72 72 72
37 35 33 32 32 34 36 36 36 35 36 37 38 38 39 40 41 41 41 42 42 42 43 43 44 44 44 45 46 47 48 48 49 50 51 51 52 52 53 53 53 54 54 54 54 54 55 55 55 55 56 57 58 59 60 61 61 62 62 62 63 63 62 62 62 62 63 63 64 65 65 66 67 68 69 70 71 73 73 73 73 73 72 71 71
35 34 33 34 34 36 37 38 38 38 37 38 38 39 40 41 42 42 43 44 44 45 45 46 46 46 46 47 48 49 49 50 51 51 52 52 53 54 54 54 55 55 56 56 56 56 56 56 56 56 57 57 58 59 60 61 62 62 62 63 63 62 62 62 62 63 63 64 64 65 65 66 67 68 69 71 72 73 73 73 72 72 71 70 70
35 34 34 35 35 36 37 38 39 40 40 40 40 40 41 42 43 44 44 45 46 46 47 47 48 49 49 49 50 51 51 52 52 53 53 54 55 55 55 56 57 57 57 57 57 57 58 58 57 57 58 58 58 60 60 61 62 62 62 62 62 62 62 62 63 63 63 64 64 65 65 66 67 68 69 71 72 72 72 72 71 70 70 69 68
37 37 37 38 38 39 39 39 40 41 41 41 42 42 43 44 45 45 46 47 48 48 48 49 50 51 51 52 53 53 54 54 54 54 55 56 56 56 57 57 58 58 58 58 59 59 59 59 59 59 59 59 59 60 61 62 62 62 62 62 62 61 61 62 63 63 63 63 64 64 65 66 67 69 70 71 71 71 70 70 69 69 68 67 67
40 40 41 41 41 42 41 42 42 42 43 43 43 44 44 45 46 47 48 48 49 50 50 51 52 52 53 54 54 55 56 56 56 56 57 57 57 58 58 58 58 59 59 60 60 60 60 60 60 60 60 60 60 61 61 62 62 62 62 62 62 61 61 62 63 63 63 63 63 64 65 67 68 69 70 70 70 69 69 68 68 68 68 67 66
43 43 44 44 44 44 44 44 44 44 44 45 45 46 46 47 48 48 49 50 51 51 52 53 53 54 55 55 56 56 57 57 57 57 58 58 58 59 59 59 59 60 60 61 61 61 61 61 61 61 61 61 61 62 62 63 63 63 62 62 62 62 62 62 63 62 62 62 63 64 65 67 68 69 69 68 68 68 68 67 67 67 67 67 67
46 46 47 47 47 47 47 47 47 47 47 47 47 48 48 49 50 50 51 51 52 53 53 54 55 56 56 57 57 58 58 59 59 59 59 59 59 60 60 60 60 61 61 61 61 61 62 62 62 62 62 62 62 62 63 63 63 63 63 62 62 62 62 63 63 62 62 62 63 64 65 66 67 67 67 67 66 66 66 66 67 67 67 67 67
49 49 50 50 50 50 50 51 51 50 50 50 49 49 50 50 51 52 53 53 54 54 55 55 56 57 58 58 59 59 60 60 60 60 60 61 61 61 61 61 62 62 62 62 62 62 62 62 62 62 62 62 63 63 63 63 63 63 62 62 62 62 62 62 62 62 62 62 63 64 65 65 66 65 65 65 65 65 65 66 66 66 67 67 67
51 52 53 53 52 53 53 54 53 53 53 52 52 52 51 51 52 53 54 55 55 56 56 56 57 58 59 59 60 61 61 62 62 61 61 62 62 62 62 63 63 63 62 62 63 62 62 62 62 62 62 63 63 64 63 63 63 62 62 61 61 62 62 62 61 61 62 63 63 64 64 64 64 64 63 64 64 65 65 65 66 66 66 66 67
54 55 56 56 55 56 56 56 56 56 56 55 55 54 54 53 53 54 55 56 56 56 57 57 58 59 59 60 61 62 62 63 63 62 62 63 62 62 63 64 63 63 63 63 63 62 62 62 62 63 63 63 64 63 63 62 62 61 61 61 61 61 61 61 61 61 62 63 63 63 63 63 63 63 63 63 64 64 65 65 65 65 65 66 66
57 57 58 59 59 59 59 59 59 59 58 59 58 58 57 56 56 56 56 56 56 57 57 58 58 59 60 61 62 63 63 64 64 64 64 63 62 63 64 64 63 63 63 63 63 63 62 62 63 63 63 64 64 63 62 62 61 60 60 61 60 60 60 60 60 61 62 62 62 62 62 62 62 62 62 63 63 64 64 64 64 65 65 65 66
60 61 61 62 62 62 62 62 61 61 61 62 61 60 60 59 58 58 57 56 57 57 58 58 59 60 61 62 63 64 65 65 65 65 64 63 63 64 65 64 63 64 64 64 63 62 62 63 63 63 64 64 63 62 61 61 60 60 60 60 59 59 59 59 60 61 61 61 61 61 60 60 60 61 62 63 63 63 63 63 64 64 65 65 66
63 64 64 64 65 65 65 64 63 63 63 63 62 62 62 61 60 60 58 58 58 58 59 59 60 61 62 63 64 65 65 66 66 66 65 64 64 65 64 63 64 64 64 63 63 62 63 63 64 64 64 63 62 61 60 60 59 59 59 59 59 59 59 60 60 60 60 60 60 59 59 59 60 60 61 62 62 62 62 63 63 64 65 65 65
67 67 67 67 68 69 68 66 66 65 65 64 63 63 63 62 62 61 60 59 59 59 60 60 61 62 63 64 65 66 66 66 66 66 65 64 65 64 64 64 64 64 64 63 62 63 63 63 64 64 63 62 61 60 59 59 59 58 58 58 58 59 59 59 59 60 59 59 59 59 59 59 59 60 60 61 61 62 62 62 63 63 64 64 65
70 70 70 71 72 71 69 68 68 67 66 65 65 65 64 63 63 62 61 61 60 61 61 62 63 64 64 65 65 66 66 66 66 65 65 65 65 64 64 64 64 64 63 62 62 63 63 64 64 64 62 60 59 59 58 58 58 57 57 57 58 58 58 59 59 59 58 58 58 58 58 59 59 60 60 60 61 62 62 62 63 63 64 64 64
71 72 72 73 73 72 71 70 70 69 68 68 68 67 66 65 64 63 62 62 61 62 62 63 64 65 66 66 66 66 66 66 65 65 64 65 64 64 64 64 64 64 63 62 63 63 64 64 64 62 60 59 58 58 58 57 57 56 56 57 57 57 57 58 58 58 58 57 57 58 58 59 59 60 60 60 61 61 62 62 63 63 64 64 64
72 72 72 72 72 71 71 72 72 72 72 71 70 69 67 66 65 64 63 63 63 63 64 65 66 66 67 66 66 65 65 65 64 64 64 64 64 63 64 64 64 63 62 63 63 64 64 64 62 60 58 57 57 57 57 56 56 56 56 56 56 56 56 57 57 57 57 57 57 57 58 59 59 59 59 60 60 61 61 62 63 63 64 64 64
72 71 71 71 71 71 71 72 72 73 72 72 71 70 68 67 66 65 65 64 65 65 65 66 67 67 67 66 65 64 64 64 63 63 64 64 63 63 63 63 63 62 62 63 64 65 64 62 59 57 57 56 56 56 56 55 55 55 55 55 55 56 56 56 56 56 56 56 57 57 58 58 59 59 59 59 60 60 61 62 62 63 64 64 64
70 70 70 71 71 71 71 72 72 72 71 71 70 69 68 67 67 66 66 65 66 66 66 66 66 66 65 64 63 62 62 62 62 63 63 63 63 63 63 62 62 62 63 64 65 64 62 60 57 56 56 55 55 55 55 55 55 55 55 55 55 55 55 55 55 55 55 56 57 57 58 58 58 59 59 59 60 60 61 62 63 63 64 64 65
70 70 71 71 71 71 71 71 71 71 71 71 71 70 69 68 67 67 67 66 66 65 65 64 64 63 62 61 60 60 60 61 62 63 62 62 62 62 62 61 62 63 64 64 64 62 60 57 56 55 55 54 55 55 55 55 55 55 55 54 54 54 54 54 55 55 55 56 56 57 58 58 58 58 59 59 59 60 61 62 63 64 64 64 65
70 70 70 71 71 71 71 71 72 72 72 71 71 70 69 68 67 67 66 65 64 63 61 60 60 59 58 58 58 59 60 61 62 62 61 60 60 60 61 61 62 63 64 63 62 59 57 56 55 55 54 54 55 55 55 55 55 54 54 54 53 53 53 54 54 54 55 56 56 57 58 58 58 58 59 60 60 61 62 63 64 64 64 65 65
69 69 70 70 70 71 72 73 73 73 72 71 70 69 68 67 65 64 63 62 60 58 56 55 55 56 56 57 58 59 61 62 61 60 59 59 59 60 60 61 62 63 63 61 59 57 55 55 54 54 54 54 55 55 54 54 54 53 54 53 53 53 53 53 53 54 54 55 56 57 57 57 57 57 58 60 61 62 63 64 64 65 65 65 66
68 68 68 69 70 73 74 74 73 72 71 70 69 67 65 63 62 60 59 57 55 53 52 53 54 55 57 58 60 61 61 61 60 59 58 58 59 60 61 61 62 62 60 58 57 55 55 55 54 54 54 55 55 54 54 54 53 53 53 53 53 53 53 53 53 54 55 56 57 57 57 56 57 57 58 60 61 62 63 64 65 65 65 66 66
65 66 68 71 73 75 74 72 70 69 67 66 65 63 61 59 58 57 55 53 52 51 52 54 56 57 59 60 61 61 61 60 59 58 57 58 58 59 60 61 61 60 58 56 55 55 54 54 54 54 54 55 54 54 53 53 53 53 53 53 53 53 53 53 53 54 55 57 57 58 58 57 58 58 59 61 62 63 64 64 65 65 65 66 66
65 68 71 73 73 72 70 68 66 64 62 61 59 58 58 57 56 54 52 51 51 52 54 56 57 59 60 60 59 59 58 58 58 58 58 58 59 59 60 60 60 58 57 55 54 54 54 54 54 54 54 54 53 53 52 53 53 53 53 53 53 53 54 54 54 55 57 57 58 58 58 59 59 59 61 62 64 65 65 65 66 65 65 66 65
71 72 71 70 68 66 65 63 61 59 57 56 55 55 55 55 54 52 50 50 50 52 55 57 58 59 58 58 57 57 58 58 59 59 59 59 59 59 60 59 58 57 55 54 54 54 54 54 54 54 54 53 53 52 52 53 53 53 53 53 54 54 54 54 55 56 57 58 58 59 59 60 60 61 62 63 65 66 67 67 67 67 67 66 65
71 70 68 67 65 63 62 60 59 58 57 55 54 54 54 55 54 51 49 49 51 53 55 56 57 57 57 57 58 59 59 59 59 59 59 60 59 59 58 57 56 56 54 54 53 53 53 53 53 53 53 52 52 52 53 53 53 54 54 54 55 55 55 56 57 57 58 58 59 59 60 61 61 62 63 64 66 68 68 68 69 69 69 67 67
69 67 66 66 65 64 63 62 61 60 59 58 57 55 54 54 54 53 51 51 53 56 56 57 58 58 59 60 61 61 60 59 59 59 60 59 58 57 57 56 55 54 53 53 53 53 53 53 53 53 53 52 52 52 53 54 54 55 55 56 56 56 57 57 58 58 58 59 59 60 60 61 62 63 64 65 66 68 70 70 70 70 70 69 70
69 68 68 68 67 66 65 63 61 60 59 58 57 56 55 55 55 55 54 56 58 59 60 60 61 61 62 62 61 61 60 59 59 59 59 58 57 56 55 54 53 53 53 53 52 52 52 52 53 53 52 52 52 52 54 55 56 56 57 57 57 58 59 59 59 59 59 59 60 61 61 62 63 64 65 66 67 68 71 72 72 72 71 71 72
69 68 69 68 67 65 63 62 61 59 59 58 57 57 57 56 56 56 57 59 60 61 62 63 63 62 62 61 61 60 59 58 58 59 58 57 55 55 54 53 53 53 52 52 51 51 51 52 52 52 52 52 52 53 54 56 57 57 58 58 59 60 61 61 60 60 60 60 61 61 62 62 63 64 65 66 67 68 70 72 73 73 73 74 75
69 67 67 67 66 65 63 63 62 61 61 60 59 59 58 58 58 58 59 60 60 61 62 61 61 61 60 58 58 58 58 58 58 58 57 56 55 54 52 52 52 52 51 50 50 51 51 52 52 52 52 52 53 54 55 56 57 58 58 60 61 62 62 62 62 61 61 61 61 62 62 63 63 64 65 66 67 69 70 71 72 73 74 75 77
70 69 69 69 68 67 66 65 65 64 64 63 62 62 61 60 59 59 60 60 60 61 60 59 57 57 56 55 56 57 58 58 58 57 55 55 54 52 51 52 52 51 50 49 50 51 51 51 51 51 52 53 54 54 55 56 57 58 60 61 62 63 63 64 63 63 63 62 63 63 63 63 63 64 65 67 68 69 71 71 71 72 73 75 77
74 73 72 72 72 71 69 68 67 67 66 65 65 64 63 62 61 60 60 60 59 60 60 58 55 54 54 54 56 57 58 57 56 55 54 53 51 50 51 51 50 49 48 49 50 51 51 51 51 51 52 53 54 55 56 57 58 59 61 62 63 64 64 65 65 64 64 64 64 64 64 64 64 65 66 68 69 70 71 71 71 72 73 75 77
79 78 77 77 76 75 74 72 71 69 68 67 66 65 63 62 60 59 58 57 57 57 56 55 53 53 53 54 55 57 56 55 54 53 52 50 49 50 51 50 48 47 48 49 50 51 51 51 51 51 52 54 55 56 56 58 59 60 61 62 64 64 65 66 66 66 66 66 65 65 65 65 65 66 68 69 70 71 71 71 71 71 73 75 77
78 77 77 76 75 74 72 70 68 65 64 62 61 59 58 56 55 54 54 54 54 53 52 51 52 52 52 53 55 55 54 53 52 51 49 47 48 49 49 48 47 47 48 49 49 50 50 51 51 52 53 54 55 56 57 59 60 61 62 63 64 65 66 67 67 67 67 66 66 66 66 65 66 67 68 70 70 71 71 71 71 71 72 74 76
63 62 61 61 59 58 57 56 54 53 52 51 50 50 49 48 48 49 49 49 48 48 48 50 51 51 50 52 54 53 51 50 49 47 46 46 48 48 47 46 46 47 48 48 49 49 50 51 51 52 53 54 55 56 58 60 61 61 63 64 65 66 67 67 67 67 67 67 67 66 66 66 67 68 69 71 71 71 71 70 70 70 72 74 75
48 47 46 46 45 44 43 43 42 42 41 41 41 41 42 42 42 43 43 43 43 44 46 48 49 49 50 52 52 50 48 47 46 44 45 46 47 46 45 45 46 46 47 48 48 49 50 51 51 52 53 54 55 57 59 60 61 62 63 64 65 66 66 67 67 68 68 67 67 67 67 68 69 70 71 72 72 71 70 70 69 69 71 73 74
42 40 40 39 38 38 37 36 35 35 36 36 37 37 38 38 38 38 39 39 40 41 43 45 46 48 49 49 48 46 45 43 43 43 44 45 44 44 44 44 45 46 46 47 48 49 50 51 52 53 54 55 56 58 59 61 62 63 64 64 65 65 66 66 67 68 68 67 67 67 68 69 69 70 71 71 70 69 68 68 68 69 70 72 72
38 36 35 34 34 33 32 32 33 33 34 35 36 36 37 37 36 36 36 37 38 39 40 42 45 46 46 45 43 42 41 41 41 42 42 42 42 42 43 43 44 45 46 47 48 49 50 51 52 54 55 56 57 59 60 61 62 63 64 64 65 65 65 66 67 68 68 67 67 68 69 69 70 71 71 70 69 69 67 67 67 67 68 70 69
Wind_Direction
285 285 284 283 282 282 281 282 282 281 280 279 278 278 278 278 277 277 277 277 278 279 280 281 281 280 280 280 281 281 281 281 281 281 281 281 281 281 281 281 280 280 280 280 281 281 281 281 281 282 281 281 280 280 280 279 279 279 278 278 278 278 277 277 276 275 275 275 275 276 277 278 278 279 279 278 278 277 276 276 275 275 275 274 274
287 285 284 284 283 283 282 283 282 281 280 279 279 279 279 278 278 278 278 279 281 282 282 282 282 281 281 281 281 281 281 281 281 281 281 281 281 281 281 281 281 281 281 282 281 281 281 282 282 282 281 281 280 280 280 280 279 279 279 279 279 278 278 277 277 276 276 275 275 276 276 277 278 278 278 277 277 276 276 275 275 275 275 274 274
286 286 286 286 284 284 283 283 282 280 280 280 279 279 279 279 279 280 281 282 282 282 282 282 281 281 281 280 280 280 280 281 281 281 281 282 282 282 282 282 282 282 282 282 282 282 282 282 282 282 282 281 281 281 281 280 280 280 280 280 280 279 279 278 278 277 277 276 276 276 276 276 277 277 277 276 276 276 276 275 275 275 275 274 274
287 286 286 285 284 284 283 283 282 281 280 281 281 280 281 281 281 282 282 282 282 282 281 281 281 281 281 280 280 281 281 281 282 282 283 283 283 283 283 283 284 284 284 284 284 284 284 284 284 284 283 283 283 282 282 282 282 281 281 281 281 281 280 280 279 278 278 277 277 276 276 276 276 275 276 276 276 276 276 276 276 276 276 275 274
287 287 286 285 284 284 284 284 283 283 283 283 284 284 284 284 283 283 282 282 282 282 282 282 282 282 281 281 282 282 283 283 283 283 284 284 283 283 283 283 283 284 284 284 284 285 285 285 285 285 284 284 283 283 283 282 282 282 282 281 281 281 281 280 280 279 278 278 277 277 277 276 276 275 275 275 276 277 277 277 277 277 277 276 275
288 288 288 287 286 285 285 285 285 286 287 287 288 288 288 287 286 286 285 285 285 284 284 284 284 283 283 283 283 284 284 284 284 284 284 284 283 283 283 283 283 283 283 283 284 284 284 284 284 284 284 284 284 284 283 283 282 282 281 281 281 280 280 280 280 279 279 279 278 278 278 277 277 276 276 276 277 278 279 279 279 279 278 278 277
289 290 289 288 287 286 285 287 288 290 290 291 292 292 291 291 291 290 290 289 288 287 286 286 285 284 284 285 285 285 285 285 285 285 285 285 285 285 285 284 284 284 284 284 285 285 285 285 285 285 285 285 285 284 284 283 282 282 281 281 280 280 280 279 279 279 279 279 278 278 278 278 278 277 277 277 278 279 281 282 282 282 281 280 279
290 291 291 289 286 285 285 289 291 293 293 294 294 294 293 293 293 292 292 292 291 290 289 287 286 286 286 286 286 286 286 286 286 286 286 286 286 286 286 286 286 286 286 286 285 285 285 286 286 286 286 286 285 285 284 284 283 282 282 281 281 280 280 280 279 279 279 279 278 278 278 279 279 279 279 279 279 280 281 283 284 284 284 283 281
291 291 291 290 287 285 287 290 293 295 295 295 295 295 295 294 293 293 292 292 292 292 291 289 289 288 288 287 287 286 286 285 285 285 285 285 286 286 285 285 285 285 285 285 285 285 285 286 286 286 286 286 286 285 285 284 284 283 283 282 282 281 281 281 280 280 279 280 280 280 280 280 280 281 281 282 282 281 282 283 284 284 284 284 283
291 291 294 293 289 288 292 295 296 295 295 295 295 295 295 295 294 293 293 293 293 292 292 291 290 290 289 289 288 287 286 286 285 285 285 285 285 285 285 285 285 285 285 285 286 286 286 286 286 286 286 286 286 285 285 285 284 284 284 283 283 282 282 281 281 281 281 281 281 281 282 282 282 282 282 283 283 284 284 284 285 284 284 283 282
293 296 299 297 290 292 298 300 298 297 296 296 295 295 294 294 294 293 293 293 293 292 292 291 291 290 290 289 288 287 286 286 286 285 285 285 285 285 286 286 286 287 288 288 288 288 288 288 288 288 287 287 287 287 286 286 286 285 284 283 283 282 282 281 281 282 282 282 282 282 283 283 283 283 284 284 285 286 286 286 286 285 284 282 280
300 302 303 298 291 293 298 300 298 297 297 296 295 294 293 293 293 293 293 293 293 292 292 292 292 291 290 289 288 287 287 286 286 286 286 286 286 287 287 288 288 289 289 290 290 290 290 290 289 289 289 289 289 289 288 288 287 286 284 284 283 282 282 282 282 282 282 282 282 283 283 283 284 284 285 286 287 288 288 288 287 285 284 282 280
305 305 303 298 294 294 296 298 298 297 296 295 294 292 292 291 292 292 292 292 292 292 292 292 292 292 291 290 289 288 288 287 287 287 287 288 288 288 289 289 289 289 289 289 290 290 290 290 290 290 290 290 290 290 289 288 287 286 285 284 283 283 282 282 282 282 282 282 283 283 283 283 284 285 286 288 288 289 289 288 287 285 283 281 280
305 305 302 300 298 296 297 297 296 295 294 293 292 291 290 290 291 291 291 291 292 292 292 292 292 292 291 291 290 289 289 289 289 289 289 289 290 290 290 290 290 290 290 290 290 291 291 291 291 292 291 291 290 290 289 288 287 286 286 285 284 283 283 283 283 283 283 283 283 283 284 285 286 287 288 289 289 289 289 287 286 284 283 281 280
305 305 303 302 300 298 297 296 295 294 293 293 292 291 290 290 290 290 290 290 291 291 291 291 291 291 291 291 290 290 290 290 290 290 290 291 291 291 291 291 291 290 291 291 290 290 291 291 291 291 291 291 290 290 289 288 287 287 286 285 284 283 283 283 283 284 283 283 284 284 285 287 288 289 289 289 289 288 287 286 285 283 282 281 280
307 307 305 304 302 301 299 297 296 295 294 294 293 292 291 290 290 290 290 290 290 291 291 291 291 291 291 290 290 290 290 290 291 291 291 291 291 292 291 291 291 291 291 291 290 291 291 291 291 291 290 290 290 290 289 289 288 287 286 285 284 283 283 283 284 284 284 284 285 286 287 288 289 289 289 289 288 287 286 285 284 283 282 281 280
308 307 306 305 304 302 301 299 298 296 295 294 294 293 293 291 291 291 290 290 290 290 290 291 291 290 290 290 290 290 290 290 290 290 290 291 291 291 291 291 291 291 291 291 290 291 291 291 290 290 290 290 290 290 289 289 289 288 287 286 284 283 283 283 284 284 284 285 286 287 288 289 289 289 289 288 288 287 286 285 284 283 282 281 280
306 306 305 305 304 303 302 300 299 297 295 295 294 294 293 292 291 291 290 290 290 290 290 290 290 289 289 289 289 288 288 289 289 289 289 290 290 290 290 291 292 292 291 291 291 291 290 290 290 290 290 290 290 290 290 289 289 288 287 286 285 284 284 284 284 284 285 286 287 287 288 288 288 288 288 288 287 286 285 284 283 283 282 282 281
303 304 304 304 303 302 301 301 300 299 297 296 295 294 293 292 291 291 291 290 290 289 289 289 289 288 288 288 287 287 287 287 288 288 288 289 289 290 290 291 292 291 291 291 291 290 290 290 290 290 291 291 291 290 290 289 289 288 287 286 285 284 284 285 285 285 286 286 287 288 288 288 288 288 288 287 286 285 285 284 283 283 282 282 282
300 301 302 302 301 300 300 299 299 298 297 297 296 295 294 293 292 291 290 290 289 289 289 288 288 287 287 286 286 286 286 286 287 287 288 288 289 289 290 290 291 291 292 292 291 290 289 290 290 290 291 291 290 290 289 289 288 288 286 285 284 284 285 285 285 286 287 287 288 288 288 288 288 288 287 287 286 285 284 283 283 283 283 283 283
298 298 299 300 299 297 297 297 297 296 296 295 295 294 294 293 293 292 291 290 289 288 288 287 287 287 286 285 285 284 284 285 285 286 286 287 288 288 289 289 290 291 292 291 290 290 289 290 290 290 290 290 290 289 288 288 288 287 285 284 283 284 284 285 286 287 287 288 288 289 288 288 288 288 287 286 285 284 284 284 284 284 284 284 284
297 296 296 296 296 295 295 294 294 294 293 293 293 293 293 292 292 292 291 290 288 287 286 286 286 285 284 283 283 283 283 283 283 284 285 286 287 288 288 288 289 291 291 291 291 290 289 290 290 290 290 289 288 287 287 287 287 285 284 283 283 284 284 285 286 287 288 288 288 289 288 288 288 287 286 285 285 284 284 284 284 284 285 285 285
296 294 293 294 294 294 293 292 291 291 291 291 291 291 291 291 291 291 291 289 287 285 285 285 285 284 283 282 281 281 281 281 282 283 283 285 286 287 287 288 290 291 292 291 291 290 290 290 290 290 289 288 287 286 286 286 285 284 283 283 283 284 285 286 287 288 288 288 288 288 288 288 288 287 286 286 285 285 285 285 285 285 285 285 286
294 292 292 292 293 293 292 290 289 289 289 290 290 290 290 290 290 291 290 288 286 285 284 284 284 283 282 281 280 279 280 280 281 281 282 284 285 286 287 289 291 291 292 292 291 290 290 290 290 290 289 287 286 286 286 286 284 283 282 283 284 285 286 287 287 288 288 288 288 288 288 287 287 287 286 286 286 286 286 286 286 286 286 287 287
291 290 291 291 291 291 290 289 287 287 288 288 288 289 290 290 290 290 289 287 286 284 284 284 283 282 281 280 279 278 279 280 280 281 282 283 285 287 288 290 291 292 292 291 290 290 290 290 290 289 288 286 285 285 285 284 283 282 283 284 285 286 287 288 288 288 288 289 288 288 288 287 287 286 286 286 287 287 287 287 287 288 288 288 289
290 290 290 290 290 289 289 287 286 286 287 287 288 289 289 289 289 289 288 287 285 284 284 283 282 281 280 279 278 278 279 279 280 281 282 283 285 287 289 291 291 292 291 291 290 290 290 290 289 288 286 285 284 284 284 283 281 282 283 284 286 287 288 288 289 289 289 289 289 288 288 287 287 287 287 287 287 287 288 288 288 288 289 289 290
291 291 290 290 290 289 288 286 285 286 286 287 287 288 288 288 288 288 287 286 285 284 283 283 282 281 279 278 277 277 278 279 280 281 282 283 286 288 290 291 291 291 291 290 290 290 290 289 288 286 285 283 283 283 282 281 281 282 283 285 286 287 288 289 289 289 289 289 289 288 288 288 288 287 287 288 288 288 289 289 289 289 290 290 290
290 290 289 289 288 287 286 285 285 285 285 286 287 287 287 288 288 288 287 286 285 284 283 282 281 280 279 278 277 277 278 279 280 281 282 284 286 288 290 291 291 290 290 289 290 290 289 288 287 285 283 283 283 282 281 280 281 282 284 285 286 287 288 289 289 289 289 289 289 288 288 288 288 288 289 289 289 290 290 290 290 290 291 291 291
286 286 286 285 285 284 284 284 284 284 285 286 286 287 287 288 288 287 286 285 284 284 283 282 281 280 278 278 277 278 279 280 280 281 282 284 287 289 290 290 290 289 289 289 289 289 288 287 285 283 282 282 282 281 280 280 281 283 284 285 286 287 288 288 289 289 289 289 288 288 288 289 289 289 290 290 290 291 291 291 291 291 292 292 292
284 284 283 282 282 282 282 282 282 283 284 285 286 286 287 287 287 286 286 285 284 283 282 281 280 278 278 277 278 279 279 279 280 281 282 285 287 289 289 289 289 289 289 289 289 288 287 285 282 281 282 282 281 280 280 281 282 283 285 286 287 288 288 288 289 289 288 288 288 288 289 289 290 290 291 291 292 292 292 292 292 292 292 293 293
283 283 282 281 281 281 282 282 282 282 283 284 285 286 286 287 286 286 285 284 284 283 281 279 278 277 277 277 278 278 278 278 279 280 283 285 287 288 288 288 288 288 288 289 288 287 285 282 281 281 281 280 280 280 280 281 282 284 285 286 287 288 288 288 288 288 288 288 288 289 289 290 291 291 292 293 293 293 293 293 293 293 294 294 294
283 282 282 282 282 282 282 282 282 283 284 285 286 286 286 286 286 286 285 284 283 281 279 278 277 277 277 277 277 277 277 278 279 281 284 286 287 288 288 287 288 288 288 288 287 284 282 281 281 281 280 279 279 279 280 281 282 284 285 286 287 288 288 288 288 288 287 288 289 289 290 291 291 292 293 293 294 294 294 294 295 295 296 296 296
283 283 283 283 282 282 282 282 284 285 286 286 286 286 286 286 286 285 284 283 281 279 277 277 277 277 276 276 275 275 276 277 279 282 284 286 287 287 287 287 288 288 288 286 284 282 280 280 280 280 280 279 278 279 280 281 283 284 285 286 287 288 288 288 288 288 288 289 289 290 290 292 293 293 294 294 295 295 295 295 296 297 297 297 297
284 283 283 282 282 282 283 285 286 287 287 287 287 287 287 287 286 284 282 279 277 276 277 277 276 275 274 274 274 275 276 278 281 283 284 286 286 286 287 288 288 288 287 285 282 280 279 279 279 279 279 278 278 279 280 282 283 284 285 286 287 288 288 288 288 288 289 289 290 290 291 293 294 295 296 296 296 296 297 298 298 299 299 299 299
284 283 282 282 283 285 286 288 288 288 288 288 289 289 288 287 285 281 279 276 275 276 276 275 274 273 273 273 275 276 278 280 281 283 284 286 286 286 287 288 288 287 285 282 280 279 279 279 279 278 277 277 278 279 281 282 283 284 285 287 288 288 289 289 288 289 289 290 290 291 292 293 294 296 296 297 297 298 299 299 300 300 300 300 300
282 281 281 282 284 286 288 289 289 289 290 290 289 289 287 285 281 278 276 275 274 274 274 273 272 273 274 275 276 278 280 281 282 283 284 285 286 287 287 288 288 286 283 280 279 278 278 278 278 277 277 277 278 280 281 282 283 284 286 287 288 289 289 289 289 290 290 290 291 291 292 292 294 295 296 297 298 298 300 300 300 301 301 301 301
280 281 283 285 286 287 288 289 290 290 289 289 288 286 284 281 278 275 273 272 272 272 272 272 273 274 275 276 278 279 281 282 283 284 285 286 287 288 288 288 287 284 281 279 278 278 278 277 277 276 277 278 279 280 281 283 284 285 286 287 288 289 289 290 290 290 290 291 291 292 292 293 294 295 296 298 299 300 301 301 301 301 301 301 301
282 284 286 287 288 289 290 290 290 290 289 287 286 284 281 278 276 274 272 272 272 272 272 273 273 273 274 276 278 280 282 283 284 285 286 286 288 288 288 287 285 282 279 278 278 278 277 276 276 276 277 278 279 280 282 283 284 285 286 287 288 289 290 290 290 290 290 291 292 293 293 293 294 296 297 299 300 301 302 302 302 301 301 301 300
286 288 289 289 290 290 291 291 291 290 289 287 286 283 281 278 275 272 271 271 271 271 271 271 272 273 274 277 279 281 283 284 285 285 285 286 287 288 287 286 283 280 279 278 277 277 276 276 276 276 277 278 279 281 282 283 284 285 286 288 289 289 290 290 289 290 291 292 292 293 293 294 295 296 298 299 301 302 303 303 302 302 302 302 300
288 289 290 290 290 291 291 291 290 290 289 287 286 283 281 279 275 272 270 270 269 269 270 271 273 275 277 279 281 283 284 284 283 283 284 286 287 287 285 283 281 279 279 278 277 276 276 275 276 277 278 279 280 281 283 283 284 285 286 288 289 290 290 289 290 290 291 292 292 293 293 294 295 296 298 300 301 303 303 302 302 302 302 302 300
289 290 289 289 289 290 290 289 288 288 287 286 284 283 281 278 276 273 271 269 269 270 271 273 275 278 279 281 283 284 284 282 281 281 284 286 287 285 284 282 280 279 278 277 276 276 276 276 276 277 278 279 280 282 283 283 284 285 287 288 289 290 290 290 290 291 291 292 292 292 293 294 295 297 299 300 302 303 303 303 303 302 302 301 300
289 289 289 288 288 288 288 287 287 286 285 284 283 282 280 278 277 275 272 271 270 271 272 274 276 278 279 281 281 281 281 280 279 281 284 287 286 284 282 280 279 279 278 277 276 275 276 276 277 278 279 279 281 282 282 283 284 286 287 289 289 290 290 290 291 291 291 291 292 292 293 294 295 297 299 300 302 303 303 303 303 302 302 302 302
286 286 286 287 287 287 286 286 286 285 284 284 283 282 281 279 277 275 273 272 272 273 273 275 276 277 278 278 278 279 279 279 279 282 285 286 284 282 280 279 279 279 277 276 275 275 276 276 277 278 279 280 281 282 282 283 285 286 288 288 289 290 290 291 291 291 291 291 292 292 292 293 295 297 298 300 301 302 302 302 302 302 303 303 303
286 286 286 286 286 286 285 285 285 285 284 284 283 282 281 280 278 276 275 273 273 273 274 275 277 278 276 275 276 278 278 279 280 282 285 285 282 279 279 279 279 278 276 275 275 275 276 277 278 279 280 280 281 282 283 284 285 286 287 288 289 290 290 291 291 291 291 291 291 292 292 293 295 296 298 299 301 302 302 302 302 302 302 303 303
287 287 286 286 286 286 285 285 285 284 284 283 283 282 281 280 279 277 275 274 272 272 273 275 277 278 277 275 276 278 278 279 280 282 283 281 279 278 279 280 279 277 275 275 274 275 276 277 279 279 280 281 282 283 284 285 285 286 287 288 289 290 290 290 291 292 292 291 292 292 293 294 294 295 297 298 300 301 301 301 301 302 302 303 304
286 286 286 286 286 286 286 285 285 284 284 283 282 281 280 279 278 276 274 273 271 272 272 274 276 277 277 276 277 278 279 280 280 281 280 278 277 278 279 279 277 275 274 274 274 276 277 279 280 280 281 282 283 284 285 285 285 287 288 289 289 290 290 291 291 292 292 292 292 293 294 294 295 296 297 298 300 300 301 301 301 302 302 303 304
287 287 287 286 286 286 285 285 284 284 283 282 280 279 278 277 275 273 272 271 271 271 272 272 273 274 275 276 278 280 281 281 280 279 277 276 277 279 279 277 275 274 274 275 276 277 279 280 280 281 282 283 284 285 285 285 286 288 288 289 289 290 290 291 291 292 292 292 293 294 294 294 295 296 297 298 299 300 301 301 301 302 302 303 305
292 291 291 290 289 288 287 286 285 284 283 281 280 279 277 275 274 273 272 272 272 271 271 272 272 272 273 276 279 281 282 280 279 277 275 276 278 278 277 275 274 274 275 276 278 279 280 281 281 282 283 284 284 285 285 286 287 288 288 289 289 290 290 291 291 291 292 292 293 293 294 294 294 295 297 298 299 299 300 300 301 301 302 303 305
298 297 296 295 293 292 290 289 287 285 284 283 281 279 277 276 276 275 275 274 273 273 273 273 273 272 273 276 280 282 280 278 276 275 276 278 278 277 276 275 275 276 277 278 279 280 281 281 282 283 283 284 285 285 286 286 287 288 288 289 289 290 290 290 291 291 291 292 293 293 293 294 295 296 297 298 298 299 299 300 300 301 301 303 304
303 301 300 299 298 296 294 292 290 289 288 286 284 282 280 279 278 278 277 276 275 275 275 275 273 273 275 278 280 279 277 275 275 276 278 278 277 276 276 276 277 278 279 280 281 281 281 282 282 283 284 285 285 285 286 287 287 288 288 289 289 289 290 290 290 291 291 292 293 293 294 295 296 296 297 297 297 298 298 299 300 300 301 302 303
305 303 302 302 301 300 299 297 296 295 292 290 287 284 282 280 279 278 277 277 277 277 276 276 276 277 278 278 277 276 276 276 278 279 278 278 277 277 277 277 278 280 281 281 281 281 281 282 283 283 284 285 286 286 287 288 288 288 289 289 289 290 290 290 290 291 291 292 292 292 293 293 294 294 295 295 295 295 296 297 298 299 300 301 300